Regional Weather Roundup
Issued by NWS

Home | Current Version | Previous Version | Text Only | Print | Product List | Glossary Off
Versions: 1 2 3 4 5 6 7 8 9 10 11 12 13 14 15 16 17 18 19 20 21 22 23 24 25 26 27 28 29 30 31 32 33 34 35 36 37 38 39 40 41 42 43 44 45 46 47 48 49 50

000
ASUS45 KSLC 270810
RWRUT

UTAH REGIONAL WEATHER ROUNDUP
NATIONAL WEATHER SERVICE SALT LAKE CITY UT
200 AM MDT TUE SEP 27 2016

UTZ001>011-023>025-270900-

NORTHERN UTAH

CITY           SKY/WX    TMP DP  RH WIND       PRES   REMARKS
BRIGHAM CITY     N/A     53  48  84 CALM      30.25S
HILL AFB       CLEAR     56  43  62 SE12      30.26S
LOGAN          CLEAR     48  47  96 CALM      30.26S
OGDEN          CLEAR     55  45  68 S6        30.24F
PROVO AIRPORT  CLEAR     51  43  74 E3        30.27S
SALT LAKE CITY CLEAR     55  49  80 S5        30.24S
VERNAL         CLOUDY    47  42  83 CALM      30.31S
WENDOVER       CLEAR     52  43  71 CALM      30.24F
HEBER CITY     CLEAR     43  37  81 CALM      30.31S
WEST JORDAN    CLEAR     54  46  73 CALM      30.26F

$$

UTZ012>022-026-027-270900-

SOUTHERN/CENTRAL UTAH

CITY           SKY/WX    TMP DP  RH WIND       PRES   REMARKS
BLANDING       CLEAR     51  34  52 N7        30.37S
BRYCE CANYON   CLEAR     38  32  79 W8        30.41F WCI  32
CEDAR CITY     CLEAR     48  35  60 CALM      30.28F
DELTA          CLEAR     46  45  93 CALM      30.25F
MILFORD        CLEAR     50  35  56 CALM      30.26F
MOAB/CYNLANDS  CLEAR     52  39  61 CALM      30.23R
PRICE          CLEAR     52  39  61 N9        30.30F
ST GEORGE      SUNNY     66  37  34 SE5       30.13F

$$

REGIONAL REPORTS     COLORADO/ARIZONA

CITY           SKY/WX    TMP DP  RH WIND       PRES   REMARKS
CRAIG, CO      CLOUDY    37  33  85 CALM      30.36F
GRAND JUNCTION CLEAR     53  40  61 SE8       30.26S
RIFLE          CLOUDY    47  41  80 CALM      30.32S
MONTROSE       CLOUDY    47  38  71 SE6       30.34S
CORTEZ         CLEAR     42  37  82 SE5       30.33S
PAGE, AZ       CLEAR     61  37  41 SE3       30.20F
GRAND CANYON   PTCLDY    46  37  71 NE3       30.34S
KINGMAN        PTCLDY    67  39  35 E8        30.11F
FLAGSTAFF      PTCLDY    47  33  58 CALM      30.34S

$$

REGIONAL REPORTS    NEVADA/IDAHO/WYOMING

CITY           SKY/WX    TMP DP  RH WIND       PRES   REMARKS
LAS VEGAS, NV  CLEAR     74  29  19 SW3       30.02F
ELY            CLEAR     42  33  70 S9        30.34F
ELKO           CLEAR     48  40  73 W3        30.25S
POCATELLO, ID  CLOUDY    45  41  86 NW5       30.26S
BURLEY         CLEAR     45  43  93 CALM      30.20F
EVANSTON, WY   CLOUDY    47  34  60 SE5       30.38F
ROCK SPRINGS   CLOUDY    46  39  76 S3        30.37S

$$



USA.gov is the U.S. government's official web portal to all federal, state and local government web resources and services.